Location: Helsinki
(60.1699°N, 24.9384°E)
Time: 20:52:04
(UTC+02:00)

Transit 4A - Pass Details

Date: 27 October 2020
Orbit: 862 x 982 km, 66.8° (Epoch: 30 November)

Event Time Altitude Azimuth Distance (km) Brightness Sun altitude
Rises 00:09:33 0° 312° (NW) 3,696 11.4 -42.7°
Reaches altitude 10° 00:12:11 10° 307° (NW) 2,747 10.6 -42.6°
Enters shadow 00:12:37 12° 306° (NW) 2,598 10.5 -42.6°
Maximum altitude 00:18:23 52° 234° (SW) 1,208 - -42.6°
Drops below altitude 10° 00:24:31 10° 160° (SSE) 2,710 - -42.5°
Sets 00:27:06 0° 156° (SSE) 3,641 - -42.5°
